Find Starlink 1997

NORAD ID: 47592 Int'l Des: 2021-009 Owner: SPXS Country: US Constellation: starlink operational
LEOCIRCULAR

リアルタイム位置

3D地球を読み込み中...

Starlink 1997について

説明を読み込み中...

次回通過

Passes for default location (London). Set your location on the main map for personalized predictions.

高度履歴

Loading altitude history...

軌道要素

1 47592U 21009AW 26105.19034596 .00064845 00000-0 45062-3 0 9997
2 47592 53.0383 180.0585 0001018 346.5819 13.5172 15.73823000286828
Epoch: Apr 15, 2026 • Age: 8 hours

現在のステータス

高度 353.6 km
速度 7.70 km/s
衛星直下点 48.26°N, 92.2°W
打ち上げ日 Feb 4, 2021
運用期間 5.1 years
タイプ internet

技術仕様

分類 Payload
質量 260.00 kg
乾燥質量 248.00 kg
総質量 260.00 kg
長さ 0.20 m
直径 2.80 m
スパン 9.00 m
形状 Box + pan
製造者 SPXS
バスタイプ Starlink
フェーズステータス In Orbit
所有者/国 SPXS/US

Most Searched